�N����,����,�~����,�C��,���x,�C��,����,���ϕ���,�ő�u�ԕ���,�ő厞����,���˗�,�I�_���x,�n�����x,�ő啗���N��,DTYPE
"17/06/22","00:10",0.0,19.1,85.9,1002.9,289.3,0.5,1.6,345.1,0.00,16.7,20.5,"00:03:20",1
"17/06/22","00:20",0.0,19.1,86.7,1003.1,342.3,0.6,1.3,340.4,0.00,16.9,20.5,"00:17:44",1
"17/06/22","00:30",0.0,18.8,87.6,1003.1,349.1,0.5,0.9,345.1,0.00,16.7,20.4,"00:26:40",1
"17/06/22","00:40",0.0,18.9,87.4,1003.6,308.5,0.7,1.9,238.0,0.00,16.8,20.5,"00:38:16",1
"17/06/22","00:50",0.0,19.2,86.0,1003.8,314.7,1.0,2.0,307.2,0.00,16.8,20.4,"00:41:20",1
"17/06/22","01:00",0.0,19.4,85.2,1003.8,306.8,0.8,2.0,339.6,0.00,16.9,20.4,"00:57:12",1
"17/06/22","01:10",0.0,19.5,84.2,1003.6,288.6,1.1,2.2,320.6,0.00,16.8,20.4,"01:08:32",1
"17/06/22","01:20",0.0,19.5,84.0,1003.6,323.3,1.0,3.9,229.4,0.00,16.8,20.3,"01:11:44",1
"17/06/22","01:30",0.0,19.4,83.9,1003.8,19.1,0.6,1.3,25.3,0.00,16.6,20.3,"01:27:12",1
"17/06/22","01:40",0.0,19.3,84.8,1003.6,336.1,0.7,1.9,337.1,0.00,16.7,20.3,"01:31:28",1
"17/06/22","01:50",0.0,19.1,85.8,1004.1,249.6,0.2,0.8,334.3,0.00,16.7,20.2,"01:44:48",1
"17/06/22","02:00",0.0,19.0,86.9,1004.1,68.5,0.5,1.0,59.0,0.00,16.8,20.2,"01:59:04",1
"17/06/22","02:10",0.0,19.0,87.7,1004.1,351.9,0.3,1.4,336.7,0.00,17.0,20.2,"02:09:32",1
"17/06/22","02:20",0.0,18.8,87.8,1004.1,345.6,0.6,1.4,330.0,0.00,16.8,20.2,"02:13:28",1
"17/06/22","02:30",0.0,18.9,87.4,1004.3,300.0,0.6,1.7,344.2,0.00,16.8,20.3,"02:28:08",1
"17/06/22","02:40",0.0,19.0,86.7,1004.1,327.6,0.8,1.7,354.4,0.00,16.8,20.3,"02:36:48",1
"17/06/22","02:50",0.0,19.2,85.7,1004.5,305.7,1.0,2.6,319.7,0.00,16.8,20.5,"02:47:28",1
"17/06/22","03:00",0.0,19.3,84.9,1004.5,328.5,1.3,3.1,304.9,0.00,16.7,20.0,"02:54:56",1
"17/06/22","03:10",0.0,19.3,84.4,1004.3,325.1,1.3,3.5,348.2,0.00,16.6,20.1,"03:00:48",1
"17/06/22","03:20",0.0,19.1,84.6,1004.3,314.9,0.7,1.7,332.6,0.00,16.5,20.2,"03:14:56",1
"17/06/22","03:30",0.0,19.0,85.2,1004.5,334.9,1.0,1.8,348.9,0.00,16.5,20.1,"03:26:32",1
"17/06/22","03:40",0.0,18.9,85.7,1004.5,342.5,1.1,2.0,337.8,0.00,16.5,20.1,"03:31:44",1
"17/06/22","03:50",0.0,18.9,86.0,1004.5,323.8,0.8,1.8,343.1,0.00,16.5,20.0,"03:49:44",1
"17/06/22","04:00",0.0,18.8,86.0,1004.3,343.9,0.7,2.6,332.9,0.00,16.4,19.8,"03:51:28",1
"17/06/22","04:10",0.0,18.7,86.6,1005.0,301.2,0.3,1.2,1.0,0.00,16.5,20.1,"04:09:52",1
"17/06/22","04:20",0.0,18.6,87.4,1005.0,15.6,0.3,1.3,0.9,0.00,16.5,19.9,"04:10:56",1
"17/06/22","04:30",0.0,18.3,88.5,1004.8,29.2,0.6,1.3,336.8,0.00,16.4,19.9,"04:24:16",1
"17/06/22","04:40",0.0,18.0,89.4,1005.2,337.6,0.8,1.8,345.2,0.00,16.3,20.0,"04:32:56",1
"17/06/22","04:50",0.0,17.8,90.3,1005.2,347.9,0.7,1.3,339.4,0.00,16.2,19.8,"04:44:24",1
"17/06/22","05:00",0.0,17.6,91.0,1005.2,339.8,0.6,1.0,340.6,0.00,16.2,20.0,"04:54:48",1
"17/06/22","05:10",0.0,17.4,91.4,1005.5,322.4,0.7,1.2,343.3,0.00,16.0,19.8,"05:00:24",1
"17/06/22","05:20",0.0,17.4,92.1,1005.5,331.4,0.7,1.4,343.8,0.00,16.1,19.8,"05:19:52",1
"17/06/22","05:30",0.0,17.4,92.4,1005.5,342.1,0.8,1.8,348.6,0.00,16.2,19.8,"05:29:28",1
"17/06/22","05:40",0.0,17.5,92.6,1005.2,337.7,0.8,1.3,351.4,0.00,16.3,19.8,"05:30:32",1
"17/06/22","05:50",0.0,17.6,92.7,1005.5,327.1,0.8,1.3,334.0,0.00,16.4,19.8,"05:42:16",1
"17/06/22","06:00",0.0,17.8,92.6,1005.5,302.8,0.7,1.1,339.6,0.01,16.6,19.8,"05:51:52",1
"17/06/22","06:10",0.0,17.9,92.4,1005.2,275.9,0.6,1.0,246.3,0.01,16.7,19.9,"06:00:32",1
"17/06/22","06:20",0.0,18.0,92.1,1005.5,350.2,0.8,1.4,19.2,0.02,16.7,19.9,"06:18:00",1
"17/06/22","06:30",0.0,18.2,92.3,1005.7,302.5,0.2,0.6,4.2,0.03,17.0,19.8,"06:20:32",1
"17/06/22","06:40",0.0,18.5,92.4,1006.0,250.3,0.2,0.8,325.2,0.04,17.3,19.7,"06:38:48",1
"17/06/22","06:50",0.0,18.6,92.3,1005.7,287.1,0.3,0.8,325.7,0.04,17.4,19.9,"06:49:12",1
"17/06/22","07:00",0.0,18.8,91.9,1006.0,317.5,0.7,1.2,350.0,0.04,17.5,20.1,"06:51:12",1
"17/06/22","07:10",0.0,18.9,91.3,1005.7,325.5,0.7,1.2,341.1,0.04,17.5,19.9,"07:00:08",1
"17/06/22","07:20",0.0,19.0,90.7,1006.0,266.3,0.8,1.4,241.4,0.04,17.5,19.8,"07:15:28",1
"17/06/22","07:30",0.0,19.3,90.7,1006.2,278.9,0.5,1.1,258.0,0.06,17.8,20.1,"07:24:56",1
"17/06/22","07:40",0.0,19.6,89.7,1006.0,300.4,0.7,1.2,341.5,0.07,17.9,20.0,"07:39:28",1
"17/06/22","07:50",0.0,19.9,88.9,1006.4,332.2,0.8,1.4,334.9,0.08,18.1,19.9,"07:44:56",1
"17/06/22","08:00",0.0,20.3,86.3,1006.4,327.4,0.7,1.6,324.9,0.10,18.0,20.2,"07:50:16",1
"17/06/22","08:10",0.0,20.7,82.8,1006.4,308.8,0.6,1.7,345.8,0.13,17.7,20.2,"08:09:44",1
"17/06/22","08:20",0.0,20.9,80.4,1006.4,290.2,0.7,2.1,339.7,0.15,17.4,20.3,"08:10:16",1
"17/06/22","08:30",0.0,21.5,78.3,1006.0,302.4,0.3,1.0,329.5,0.16,17.6,20.2,"08:26:08",1
"17/06/22","08:40",0.0,21.6,77.1,1006.0,316.4,0.7,1.7,1.8,0.18,17.5,20.6,"08:34:56",1
"17/06/22","08:50",0.0,21.9,75.1,1006.0,345.6,1.0,2.1,348.8,0.22,17.3,20.5,"08:43:12",1
"17/06/22","09:00",0.0,22.1,73.5,1006.0,335.1,1.0,2.1,38.5,0.22,17.2,20.7,"08:59:36",1
"17/06/22","09:10",0.0,22.4,73.2,1005.5,251.3,1.0,2.7,215.0,0.26,17.4,20.8,"09:09:28",1
"17/06/22","09:20",0.0,22.7,72.5,1006.0,224.4,0.8,1.9,232.2,0.26,17.5,21.1,"09:14:08",1
"17/06/22","09:30",0.0,23.4,70.0,1005.2,239.5,0.2,0.9,142.2,0.27,17.7,21.2,"09:22:08",1
"17/06/22","09:40",0.0,23.4,69.2,1005.2,288.9,0.6,1.3,350.5,0.29,17.5,21.3,"09:32:08",1
"17/06/22","09:50",0.0,23.4,66.4,1005.0,342.4,0.5,1.4,330.8,0.26,16.8,21.4,"09:42:40",1
"17/06/22","10:00",0.0,23.4,66.8,1004.8,190.1,0.3,1.6,195.0,0.23,16.9,21.6,"09:59:12",1
"17/06/22","10:10",0.0,23.0,69.3,1005.0,208.9,1.1,2.1,231.5,0.23,17.1,21.8,"10:05:20",1
"17/06/22","10:20",0.0,23.4,65.2,1005.2,241.2,0.7,1.8,210.0,0.29,16.5,21.5,"10:10:56",1
"17/06/22","10:30",0.0,24.1,67.2,1004.5,225.6,0.8,2.9,226.0,0.34,17.7,22.0,"10:22:08",1
"17/06/22","10:40",0.0,23.7,65.2,1004.3,191.5,1.3,3.1,192.9,0.30,16.8,22.1,"10:30:02",1
"17/06/22","10:50",0.0,24.2,64.7,1004.5,133.3,1.0,2.5,191.9,0.31,17.2,22.1,"10:40:08",1
"17/06/22","11:00",0.0,24.5,63.3,1004.3,159.2,1.0,2.4,205.2,0.35,17.1,22.5,"10:52:16",1
"17/06/22","11:10",0.0,25.1,62.1,1004.3,186.0,1.0,2.9,155.3,0.45,17.4,22.5,"11:08:32",1
"17/06/22","11:20",0.0,25.0,63.3,1004.1,181.4,1.1,3.1,228.8,0.38,17.6,22.5,"11:17:04",1
"17/06/22","11:30",0.0,25.1,62.0,1003.8,107.7,1.0,3.1,191.1,0.37,17.4,22.9,"11:21:44",1
"17/06/22","11:40",0.0,25.1,61.9,1003.6,138.5,1.1,2.7,146.6,0.35,17.3,22.8,"11:31:36",1
"17/06/22","11:50",0.0,25.8,57.4,1003.4,356.8,0.7,2.2,22.6,0.46,16.8,23.2,"11:48:48",1
"17/06/22","12:00",0.0,25.3,60.3,1003.1,9.1,1.1,2.7,0.6,0.31,17.1,23.2,"11:58:24",1
"17/06/22","12:10",0.0,25.5,58.9,1003.1,312.6,1.2,2.2,337.9,0.36,16.9,23.4,"12:06:08",1
"17/06/22","12:20",0.0,25.8,57.8,1002.9,318.1,2.2,3.9,332.0,0.50,16.9,23.5,"12:19:28",1
"17/06/22","12:30",0.0,26.2,58.3,1002.6,333.9,2.2,4.2,322.4,0.53,17.4,23.7,"12:20:16",1
"17/06/22","12:40",0.0,26.2,60.4,1002.6,331.2,2.0,5.1,327.0,0.44,18.0,23.9,"12:30:48",1
"17/06/22","12:50",0.0,26.6,59.4,1002.6,253.3,1.1,2.6,239.5,0.51,18.1,24.2,"12:42:32",1
"17/06/22","13:00",0.0,26.4,60.0,1002.6,230.8,1.3,2.9,228.5,0.44,18.1,24.3,"12:54:00",1
"17/06/22","13:10",0.0,27.5,56.6,1002.6,331.9,1.2,3.6,350.7,0.50,18.2,24.2,"13:07:20",1
"17/06/22","13:20",0.0,27.2,57.3,1002.4,359.1,1.2,3.2,335.6,0.39,18.1,24.5,"13:16:40",1
"17/06/22","13:30",0.0,27.3,55.5,1002.4,195.3,0.8,2.0,237.7,0.40,17.7,24.5,"13:20:56",1
"17/06/22","13:40",0.0,26.8,55.8,1002.4,330.1,1.2,2.1,11.0,0.30,17.3,24.4,"13:36:08",1
"17/06/22","13:50",0.0,27.0,56.5,1001.9,14.8,0.7,1.7,354.5,0.24,17.7,24.3,"13:42:24",1
"17/06/22","14:00",0.0,27.3,55.9,1001.7,334.0,1.5,3.5,337.0,0.30,17.8,24.5,"13:56:40",1
"17/06/22","14:10",0.0,28.1,56.2,1001.7,304.3,0.8,2.6,342.5,0.41,18.6,24.5,"14:00:32",1
"17/06/22","14:20",0.0,27.3,55.9,1001.5,203.6,0.5,1.1,185.8,0.24,17.8,24.8,"14:10:24",1
"17/06/22","14:30",0.0,27.1,56.9,1001.5,300.0,0.6,1.7,310.3,0.20,17.9,24.9,"14:27:52",1
"17/06/22","14:40",0.0,27.0,56.2,1001.2,235.7,0.7,2.1,234.6,0.19,17.6,24.7,"14:35:28",1
"17/06/22","14:50",0.2,26.8,55.9,1001.0,303.6,1.0,2.8,332.7,0.19,17.3,24.8,"14:49:28",1
"17/06/22","15:00",0.0,27.0,57.3,1001.0,343.2,1.3,2.1,333.4,0.19,17.9,24.7,"14:50:24",1
"17/06/22","15:10",0.0,27.7,55.8,1000.8,320.1,1.0,2.8,340.8,0.28,18.1,24.6,"15:08:56",1
"17/06/22","15:20",0.0,27.6,57.5,1000.8,318.7,1.0,2.1,349.8,0.24,18.5,24.8,"15:17:36",1
"17/06/22","15:30",0.0,27.2,58.8,1000.8,309.0,1.0,2.4,349.1,0.18,18.5,24.7,"15:22:32",1
"17/06/22","15:40",0.0,27.4,58.2,1000.8,297.8,0.6,1.4,347.6,0.18,18.5,24.7,"15:30:48",1
"17/06/22","15:50",0.0,27.4,56.8,1000.5,281.5,0.3,1.4,318.1,0.18,18.1,24.7,"15:45:36",1
"17/06/22","16:00",0.0,27.5,54.2,1001.0,318.3,0.8,2.0,347.0,0.21,17.5,24.7,"15:59:28",1
"17/06/22","16:10",0.0,27.3,56.3,1000.5,338.4,0.7,1.8,14.9,0.14,17.9,24.8,"16:06:40",1
"17/06/22","16:20",0.0,27.2,58.4,1000.3,51.9,0.3,1.6,289.2,0.14,18.4,24.8,"16:11:04",1
"17/06/22","16:30",0.0,27.5,57.6,1000.0,334.1,0.3,1.8,331.5,0.16,18.4,24.8,"16:26:56",1
"17/06/22","16:40",0.0,27.5,57.1,999.8,358.3,1.0,2.4,23.8,0.16,18.3,24.8,"16:34:32",1
"17/06/22","16:50",0.0,27.3,58.3,999.6,346.0,1.1,2.2,345.0,0.15,18.4,24.9,"16:43:52",1
"17/06/22","17:00",0.0,26.7,58.5,1000.3,336.0,1.2,2.2,352.0,0.10,17.9,24.8,"16:51:20",1
"17/06/22","17:10",0.0,27.0,59.6,1000.5,308.4,0.7,1.7,351.7,0.09,18.5,24.7,"17:00:32",1
"17/06/22","17:20",0.0,27.1,57.1,1000.5,301.2,0.5,1.2,327.2,0.08,17.9,24.7,"17:15:36",1
"17/06/22","17:30",0.0,26.9,58.1,1000.3,289.6,0.6,1.4,310.3,0.07,18.0,24.6,"17:25:44",1
"17/06/22","17:40",0.0,26.7,59.9,1000.5,318.1,0.7,1.4,327.0,0.06,18.3,24.8,"17:34:48",1
"17/06/22","17:50",0.0,26.4,60.7,1000.8,307.3,0.7,1.3,348.9,0.05,18.2,24.4,"17:46:40",1
"17/06/22","18:00",0.0,26.3,65.2,1000.5,328.1,0.7,1.4,350.2,0.04,19.3,24.5,"17:55:52",1
"17/06/22","18:10",0.0,26.0,66.7,1001.0,346.0,0.8,1.8,19.3,0.04,19.4,24.4,"18:02:16",1
"17/06/22","18:20",0.0,25.5,69.5,1001.0,340.4,1.1,1.9,340.7,0.03,19.6,24.5,"18:11:12",1
"17/06/22","18:30",0.0,25.0,71.3,1001.0,331.7,1.0,2.1,327.3,0.02,19.5,24.4,"18:26:40",1
"17/06/22","18:40",0.0,24.8,72.6,1000.8,321.3,1.1,2.1,334.1,0.01,19.6,24.2,"18:34:08",1
"17/06/22","18:50",0.0,24.5,73.0,1000.8,301.0,0.7,1.6,330.8,0.01,19.4,24.1,"18:45:52",1
"17/06/22","19:00",0.0,24.4,73.0,1001.0,263.3,0.6,1.4,270.7,0.01,19.3,24.3,"18:56:24",1
"17/06/22","19:10",0.0,24.1,74.0,1001.2,285.1,0.7,1.6,253.7,0.01,19.2,24.0,"19:04:32",1
"17/06/22","19:20",0.0,23.9,75.1,1001.2,278.7,0.8,1.7,309.0,0.00,19.3,23.9,"19:15:04",1
"17/06/22","19:30",0.0,23.6,74.9,1001.5,261.4,0.7,1.6,242.3,0.00,18.9,23.9,"19:26:40",1
"17/06/22","19:40",0.0,23.1,72.1,1001.5,268.9,1.1,2.5,256.7,0.00,17.8,23.8,"19:32:16",1
"17/06/22","19:50",0.0,23.0,72.8,1001.5,271.6,1.0,1.8,311.7,0.00,17.9,23.7,"19:42:08",1
"17/06/22","20:00",0.0,22.7,74.6,1001.5,291.0,1.0,1.7,300.4,0.00,18.0,23.5,"19:50:32",1
"17/06/22","20:10",0.0,22.6,75.5,1001.5,295.9,1.0,1.8,266.0,0.00,18.1,23.4,"20:03:04",1
"17/06/22","20:20",0.0,22.6,76.1,1001.9,296.4,1.1,2.4,325.7,0.00,18.2,23.3,"20:14:24",1
"17/06/22","20:30",0.0,22.4,77.7,1001.7,318.1,1.7,2.9,319.6,0.00,18.4,23.2,"20:21:52",1
"17/06/22","20:40",0.0,22.2,78.0,1001.9,332.4,1.0,1.9,333.2,0.00,18.2,23.2,"20:34:40",1
"17/06/22","20:50",0.0,21.9,76.9,1002.2,260.5,0.6,1.4,235.7,0.00,17.7,23.0,"20:46:00",1
"17/06/22","21:00",0.0,21.7,77.3,1002.4,318.9,1.2,2.2,331.9,0.00,17.6,22.9,"20:57:44",1
"17/06/22","21:10",0.0,21.6,79.1,1002.6,315.5,0.8,1.9,325.2,0.00,17.9,22.9,"21:00:24",1
"17/06/22","21:20",0.0,21.4,80.5,1002.6,318.5,0.7,1.7,347.7,0.00,17.9,22.7,"21:19:20",1
"17/06/22","21:30",0.0,21.1,80.2,1003.4,277.9,0.6,1.6,304.9,0.00,17.6,22.6,"21:20:32",1
"17/06/22","21:40",0.0,20.9,81.5,1003.1,309.5,1.0,1.9,2.9,0.00,17.7,22.5,"21:37:20",1
"17/06/22","21:50",0.0,20.9,82.1,1003.4,332.0,1.8,2.6,333.5,0.00,17.8,22.6,"21:48:56",1
"17/06/22","22:00",0.0,20.7,82.1,1003.1,306.8,1.0,2.5,322.2,0.00,17.6,22.4,"21:50:16",1
"17/06/22","22:10",0.0,20.6,82.7,1003.1,335.2,1.6,3.1,340.8,0.00,17.6,22.5,"22:03:04",1
"17/06/22","22:20",0.0,20.4,83.1,1003.1,334.6,1.0,2.7,335.5,0.00,17.5,22.2,"22:17:44",1
"17/06/22","22:30",0.0,20.3,84.3,1003.6,340.6,0.7,1.7,318.9,0.00,17.6,22.3,"22:22:00",1
"17/06/22","22:40",0.0,19.9,84.8,1003.6,330.0,0.8,1.9,330.7,0.00,17.3,22.2,"22:34:48",1
"17/06/22","22:50",0.0,19.8,85.3,1003.4,328.2,0.8,1.7,341.1,0.00,17.3,22.1,"22:45:28",1
"17/06/22","23:00",0.0,19.7,85.9,1003.4,342.4,1.0,1.6,349.8,0.00,17.3,21.9,"22:53:12",1
"17/06/22","23:10",0.0,19.5,86.1,1003.6,316.6,0.6,1.0,347.4,0.00,17.2,22.0,"23:02:56",1
"17/06/22","23:20",0.0,19.2,87.2,1003.6,307.2,0.6,1.3,340.7,0.00,17.1,21.8,"23:18:40",1
"17/06/22","23:30",0.0,19.2,87.9,1003.4,343.5,1.1,2.2,355.1,0.00,17.2,21.8,"23:26:56",1
"17/06/22","23:40",0.0,19.4,87.5,1003.6,330.5,1.3,2.1,328.9,0.00,17.3,21.7,"23:32:24",1
"17/06/22","23:50",0.0,19.5,86.9,1003.6,316.3,1.3,2.4,320.3,0.00,17.3,21.7,"23:42:00",1
"17/06/22","24:00",0.0,19.4,86.4,1003.6,318.9,1.1,1.8,315.5,0.00,17.1,21.8,"23:53:04",1
